When you browse on this site, cookies collect data to enhance your experience and personalize the content and advertising you see.
Visit our Privacy Policy to learn more. By continuing to use the site, you agree to this use of cookies and data.
  • In Österreich
  • Länderverzeichnis
  • Für 7 Tage
  • Wassertemperatur
  • Wetterkarte
  • News
  • Widgets
  • user-avatar
    Anmelden

    Stündliche Wetter Zatyshne

    Heute, 23 August, Freitag

    Zeit Temperatur Niederschläge Wind Luftdruck Luftfeuchtigkeit
    00:00 +27°C° 0 mm 5 m/S 745 mmHg 46%
    01:00 +26°C° 0 mm 5 m/S 746 mmHg 47%
    02:00 +26°C° 0 mm 5 m/S 746 mmHg 51%
    03:00 +25°C° 0.3 mm 5 m/S 746 mmHg 54%
    04:00 +25°C° 0.3 mm 5 m/S 746 mmHg 58%
    05:00 +23°C° 0.3 mm 5 m/S 746 mmHg 61%
    06:00 +24°C° 0 mm 6 m/S 746 mmHg 58%
    07:00 +27°C° 0 mm 6 m/S 746 mmHg 55%
    08:00 +28°C° 0 mm 6 m/S 746 mmHg 51%
    09:00 +30°C° 0 mm 6 m/S 746 mmHg 46%
    10:00 +32°C° 0 mm 6 m/S 746 mmHg 41%
    11:00 +34°C° 0 mm 6 m/S 746 mmHg 36%
    12:00 +35°C° 0 mm 6 m/S 746 mmHg 34%
    13:00 +36°C° 0 mm 6 m/S 746 mmHg 31%
    14:00 +37°C° 0 mm 5 m/S 746 mmHg 27%
    15:00 +36°C° 0 mm 6 m/S 746 mmHg 30%
    16:00 +35°C° 0 mm 6 m/S 746 mmHg 33%
    17:00 +34°C° 0 mm 6 m/S 746 mmHg 36%
    18:00 +33°C° 0 mm 6 m/S 746 mmHg 39%
    19:00 +30°C° 0 mm 6 m/S 746 mmHg 43%
    20:00 +29°C° 0 mm 6 m/S 746 mmHg 46%
    21:00 +28°C° 0 mm 6 m/S 746 mmHg 48%
    22:00 +27°C° 0 mm 5 m/S 746 mmHg 50%
    23:00 +26°C° 0 mm 5 m/S 746 mmHg 52%

    Morgen, 24 August, Samstag

    Zeit Temperatur Niederschläge Wind Luftdruck Luftfeuchtigkeit
    00:00 +26°C° 0 mm 5 m/S 746 mmHg 55%
    01:00 +26°C° 0 mm 5 m/S 746 mmHg 58%
    02:00 +24°C° 0 mm 6 m/S 746 mmHg 61%
    03:00 +25°C° 0 mm 5 m/S 746 mmHg 62%
    04:00 +25°C° 0 mm 5 m/S 747 mmHg 63%
    05:00 +23°C° 0 mm 5 m/S 747 mmHg 65%
    06:00 +26°C° 0 mm 5 m/S 747 mmHg 61%
    07:00 +27°C° 0 mm 6 m/S 747 mmHg 57%
    08:00 +29°C° 0 mm 6 m/S 747 mmHg 53%
    09:00 +30°C° 0 mm 6 m/S 747 mmHg 48%
    10:00 +33°C° 0 mm 6 m/S 747 mmHg 42%
    11:00 +35°C° 0 mm 6 m/S 747 mmHg 37%
    12:00 +35°C° 0 mm 6 m/S 747 mmHg 36%
    13:00 +35°C° 0 mm 6 m/S 747 mmHg 35%
    14:00 +36°C° 0 mm 5 m/S 747 mmHg 34%
    15:00 +35°C° 0 mm 5 m/S 746 mmHg 36%
    16:00 +34°C° 0 mm 5 m/S 746 mmHg 37%
    17:00 +34°C° 0 mm 5 m/S 746 mmHg 39%
    18:00 +32°C° 0 mm 5 m/S 746 mmHg 44%
    19:00 +29°C° 0 mm 5 m/S 747 mmHg 49%
    20:00 +27°C° 0 mm 4 m/S 747 mmHg 54%
    21:00 +27°C° 0 mm 4 m/S 747 mmHg 57%
    22:00 +26°C° 0 mm 4 m/S 747 mmHg 61%
    23:00 +25°C° 0 mm 4 m/S 747 mmHg 64%

    übermorgen, 25 August, Sonntag

    Zeit Temperatur Niederschläge Wind Luftdruck Luftfeuchtigkeit
    00:00 +25°C° 0 mm 4 m/S 747 mmHg 66%
    01:00 +23°C° 0 mm 4 m/S 747 mmHg 68%
    02:00 +23°C° 0 mm 4 m/S 747 mmHg 70%
    03:00 +22°C° 0 mm 4 m/S 747 mmHg 72%
    04:00 +22°C° 0 mm 4 m/S 747 mmHg 74%
    05:00 +21°C° 0 mm 4 m/S 747 mmHg 76%
    06:00 +23°C° 0 mm 5 m/S 747 mmHg 70%
    07:00 +26°C° 0 mm 5 m/S 747 mmHg 63%
    08:00 +27°C° 0 mm 6 m/S 747 mmHg 57%
    09:00 +29°C° 0 mm 6 m/S 747 mmHg 52%
    10:00 +30°C° 0 mm 6 m/S 747 mmHg 48%
    11:00 +32°C° 0 mm 6 m/S 747 mmHg 44%
    12:00 +32°C° 0 mm 6 m/S 747 mmHg 42%
    13:00 +33°C° 0 mm 6 m/S 747 mmHg 41%
    14:00 +33°C° 0 mm 6 m/S 747 mmHg 40%
    15:00 +32°C° 0 mm 6 m/S 747 mmHg 41%
    16:00 +32°C° 0 mm 6 m/S 747 mmHg 43%
    17:00 +30°C° 0 mm 6 m/S 747 mmHg 45%
    18:00 +28°C° 0 mm 6 m/S 747 mmHg 46%
    19:00 +27°C° 0 mm 6 m/S 748 mmHg 48%
    20:00 +24°C° 0 mm 6 m/S 748 mmHg 49%
    21:00 +23°C° 0 mm 5 m/S 748 mmHg 49%
    22:00 +22°C° 0 mm 5 m/S 748 mmHg 48%
    23:00 +22°C° 0 mm 5 m/S 748 mmHg 47%

    26 August, Montag

    Zeit Temperatur Niederschläge Wind Luftdruck Luftfeuchtigkeit
    00:00 +21°C° 0 mm 5 m/S 748 mmHg 50%
    01:00 +20°C° 0 mm 5 m/S 749 mmHg 52%
    02:00 +20°C° 0 mm 5 m/S 749 mmHg 55%
    03:00 +19°C° 0 mm 5 m/S 749 mmHg 60%
    04:00 +19°C° 0 mm 5 m/S 749 mmHg 65%
    05:00 +17°C° 0 mm 5 m/S 749 mmHg 70%
    06:00 +20°C° 0 mm 5 m/S 749 mmHg 64%
    07:00 +22°C° 0 mm 6 m/S 749 mmHg 58%
    08:00 +23°C° 0 mm 7 m/S 749 mmHg 52%
    09:00 +26°C° 0 mm 6 m/S 749 mmHg 48%
    10:00 +27°C° 0 mm 6 m/S 749 mmHg 43%
    11:00 +28°C° 0 mm 6 m/S 749 mmHg 39%
    12:00 +29°C° 0 mm 6 m/S 749 mmHg 37%
    13:00 +29°C° 0 mm 6 m/S 749 mmHg 36%
    14:00 +30°C° 0 mm 6 m/S 749 mmHg 34%
    15:00 +29°C° 0 mm 6 m/S 749 mmHg 34%
    16:00 +28°C° 0 mm 6 m/S 749 mmHg 34%
    17:00 +28°C° 0 mm 6 m/S 748 mmHg 34%
    18:00 +26°C° 0 mm 5 m/S 748 mmHg 37%
    19:00 +23°C° 0 mm 5 m/S 748 mmHg 40%
    20:00 +22°C° 0 mm 5 m/S 749 mmHg 43%
    21:00 +21°C° 0 mm 5 m/S 749 mmHg 44%
    22:00 +20°C° 0 mm 4 m/S 748 mmHg 45%
    23:00 +20°C° 0 mm 4 m/S 748 mmHg 46%

    27 August, Dienstag

    Zeit Temperatur Niederschläge Wind Luftdruck Luftfeuchtigkeit
    00:00 +19°C° 0 mm 4 m/S 748 mmHg 47%
    01:00 +18°C° 0 mm 4 m/S 748 mmHg 49%
    02:00 +18°C° 0 mm 4 m/S 748 mmHg 50%
    03:00 +17°C° 0 mm 4 m/S 748 mmHg 51%
    04:00 +17°C° 0 mm 4 m/S 747 mmHg 52%
    05:00 +17°C° 0 mm 4 m/S 747 mmHg 52%
    06:00 +19°C° 0 mm 4 m/S 747 mmHg 47%
    07:00 +21°C° 0 mm 5 m/S 747 mmHg 41%
    08:00 +25°C° 0 mm 5 m/S 747 mmHg 36%
    09:00 +26°C° 0 mm 5 m/S 747 mmHg 33%
    10:00 +28°C° 0 mm 5 m/S 747 mmHg 30%
    11:00 +29°C° 0 mm 5 m/S 747 mmHg 27%
    12:00 +30°C° 0 mm 5 m/S 747 mmHg 27%
    13:00 +30°C° 0 mm 5 m/S 746 mmHg 27%
    14:00 +32°C° 0 mm 4 m/S 746 mmHg 27%
    15:00 +30°C° 0 mm 5 m/S 746 mmHg 27%
    16:00 +29°C° 0 mm 5 m/S 746 mmHg 27%
    17:00 +28°C° 0 mm 5 m/S 746 mmHg 28%
    18:00 +26°C° 0 mm 5 m/S 746 mmHg 31%
    19:00 +23°C° 0 mm 4 m/S 746 mmHg 34%
    20:00 +21°C° 0 mm 4 m/S 746 mmHg 38%
    21:00 +20°C° 0 mm 4 m/S 746 mmHg 40%
    22:00 +20°C° 0 mm 4 m/S 746 mmHg 42%
    23:00 +19°C° 0 mm 3 m/S 746 mmHg 44%

    28 August, Mittwoch

    Zeit Temperatur Niederschläge Wind Luftdruck Luftfeuchtigkeit
    00:00 +18°C° 0 mm 3 m/S 746 mmHg 46%
    01:00 +18°C° 0 mm 3 m/S 746 mmHg 49%
    02:00 +17°C° 0 mm 3 m/S 746 mmHg 52%
    03:00 +17°C° 0 mm 3 m/S 746 mmHg 57%
    04:00 +17°C° 0 mm 3 m/S 746 mmHg 61%
    05:00 +16°C° 0 mm 3 m/S 746 mmHg 66%
    06:00 +18°C° 0 mm 3 m/S 746 mmHg 63%
    07:00 +21°C° 0 mm 4 m/S 746 mmHg 60%
    08:00 +23°C° 0 mm 4 m/S 747 mmHg 56%
    09:00 +25°C° 0 mm 5 m/S 747 mmHg 51%
    10:00 +26°C° 0 mm 5 m/S 747 mmHg 45%
    11:00 +27°C° 0 mm 5 m/S 747 mmHg 40%
    12:00 +28°C° 0 mm 5 m/S 747 mmHg 37%
    13:00 +28°C° 0 mm 5 m/S 747 mmHg 34%
    14:00 +28°C° 0 mm 5 m/S 746 mmHg 31%
    15:00 +27°C° 0 mm 5 m/S 746 mmHg 32%
    16:00 +26°C° 0 mm 5 m/S 746 mmHg 32%
    17:00 +25°C° 0 mm 5 m/S 746 mmHg 32%
    18:00 +22°C° 0 mm 5 m/S 747 mmHg 33%
    19:00 +20°C° 0 mm 5 m/S 747 mmHg 34%
    20:00 +18°C° 0 mm 4 m/S 747 mmHg 35%
    21:00 +17°C° 0 mm 4 m/S 747 mmHg 36%
    22:00 +15°C° 0 mm 4 m/S 747 mmHg 37%
    23:00 +14°C° 0 mm 4 m/S 748 mmHg 37%
    Mehr zeigen